Tracking 31027 objects as of 19-Jul-2025
HD Live streaming from Space Station
objects crossing your sky now

STARLINK-4505

Track STARLINK-4505 now!
10-day predictions
STARLINK-4505 is classified as:


NORAD ID: 53556
Int'l Code: 2022-101AF
Perigee: 545.9 km
Apogee: 547.9 km
Inclination: 53.2 °
Period: 95.4 minutes
Semi major axis: 6917 km
RCS: Unknown
Launch date: August 19, 2022
Source: United States (US)
Launch site: AIR FORCE EASTERN TEST RANGE (AFETR)
Your satellite tracking list
STARLINK-2062
Track 1 satellite(s)




NASA's NSSDC Master Catalog

Two Line Element Set (TLE):
1 53556U 22101AF  25199.55925371  .00000271  00000-0  35094-4 0  9998
2 53556  53.2186  35.1735 0001386  95.4701 264.6449 15.08836230160962
Source of the keplerian elements: AFSPC